User: anonymous   Login
Location: S�tio Afonso Gruber
(26.1760°S, 49.5250°W)
Time: 17:51:56
(UTC+00:00)
Language:

XW-2B - Orbit

View from above orbital plane
View from above orbital plane
View from above satellite
View from above satellite

Ground track
Ground track

The orbit data is extracted from the following two-line orbital elements,

1 40911U 15049N   22334.14598483  .00006365  00000-0  28262-3 0  9993
2 40911  97.4928 337.1609 0013594 130.0398 294.6892 15.21822469398034
Epoch (UTC): 30 November 2022 03:30:13
Eccentricity: 0.0013594
inclination: 97.4928°
perigee height: 491 km
apogee height: 510 km
right ascension of ascending node: 337.1609°
argument of perigee: 130.0398°
revolutions per day: 15.21822469
mean anomaly at epoch: 294.6892°
orbit number at epoch: 39803

The dashed part of the orbit path shows where the satellite is in the earth's shadow,  

DLR